EJU7693 LPPT-LEBL

Flight info

Callsign EJU7693
Flight time 1h 18m
Altitude 36000
Route ORVED DCT UREDI DCT DIPOL DCT RBO DCT PINAR DCT SEGRE DCT BRITO DCT PISUS DCT PONEN T600 CASPE
Aircraft A320/M-SDE3FGHIRWY/LB1

Departure

Time 2026-05-04 20:56
Airport Lisbon Humberto Delgado Airport (LPPT)

Arrival

Time 2026-05-04 22:14
Airport Josep Tarradellas Barcelona-El Prat Airport (LEBL)
Time Latitude Longitude Altitude Speed Heading
2026-05-04 20:14 38.76938 -9.13062 333 ft 0 kts 78°
2026-05-04 20:16 38.76938 -9.13063 333 ft 0 kts 78°
2026-05-04 20:24 38.76937 -9.13063 337 ft 0 kts 78°
2026-05-04 20:48 38.76936 -9.13073 337 ft 4 kts 78°
2026-05-04 20:48 38.76930 -9.13107 333 ft 4 kts 73°
2026-05-04 20:49 38.76920 -9.13137 336 ft 4 kts 42°
2026-05-04 20:49 38.76907 -9.13146 333 ft 0 kts 348°
2026-05-04 20:51 38.76906 -9.13146 333 ft 0 kts 348°
2026-05-04 20:51 38.76907 -9.13146 333 ft 1 kts 348°
2026-05-04 20:52 38.76969 -9.13163 337 ft 18 kts 347°
2026-05-04 20:52 38.77116 -9.13203 338 ft 23 kts 348°
2026-05-04 20:52 38.77273 -9.13244 336 ft 24 kts 348°
2026-05-04 20:52 38.77439 -9.13281 338 ft 25 kts 348°
2026-05-04 20:53 38.77609 -9.13320 337 ft 25 kts 356°
2026-05-04 20:53 38.77778 -9.13350 345 ft 22 kts 348°
2026-05-04 20:53 38.77925 -9.13390 351 ft 20 kts 348°
2026-05-04 20:53 38.78050 -9.13404 360 ft 17 kts 12°
2026-05-04 20:54 38.78179 -9.13338 362 ft 24 kts 21°
2026-05-04 20:54 38.78339 -9.13253 361 ft 25 kts 21°
2026-05-04 20:54 38.78488 -9.13232 361 ft 20 kts 339°
2026-05-04 20:54 38.78534 -9.13371 362 ft 18 kts 238°
2026-05-04 20:55 38.78473 -9.13411 366 ft 7 kts 203°
2026-05-04 20:55 38.78349 -9.13480 365 ft 48 kts 203°
2026-05-04 20:55 38.77814 -9.13765 367 ft 115 kts 202°
2026-05-04 20:55 38.76908 -9.14246 368 ft 164 kts 202°
2026-05-04 20:56 38.75878 -9.14774 1060 ft 157 kts 204°
2026-05-04 20:56 38.74834 -9.15310 1605 ft 168 kts 203°
2026-05-04 20:56 38.73698 -9.15917 2038 ft 185 kts 205°
2026-05-04 20:56 38.72449 -9.16542 2464 ft 205 kts 195°
2026-05-04 20:57 38.70976 -9.16274 2750 ft 230 kts 149°
2026-05-04 20:57 38.69896 -9.14705 3105 ft 248 kts 108°
2026-05-04 20:57 38.69797 -9.12471 3581 ft 261 kts 71°
2026-05-04 20:57 38.70506 -9.10325 4423 ft 264 kts 57°
2026-05-04 20:58 38.71489 -9.08315 5359 ft 268 kts 53°
2026-05-04 20:58 38.72560 -9.06332 6293 ft 273 kts 53°
2026-05-04 20:58 38.73648 -9.04314 7161 ft 279 kts 53°
2026-05-04 20:58 38.74735 -9.02226 8029 ft 284 kts 54°
2026-05-04 20:59 38.75811 -9.00076 8909 ft 289 kts 55°
2026-05-04 20:59 38.76881 -8.97876 9797 ft 294 kts 55°
2026-05-04 20:59 38.77967 -8.95610 10427 ft 308 kts 55°
2026-05-04 20:59 38.79128 -8.93177 10733 ft 332 kts 56°
2026-05-04 21:00 38.80360 -8.90578 11216 ft 347 kts 56°
2026-05-04 21:00 38.81622 -8.87894 11924 ft 355 kts 56°
2026-05-04 21:00 38.82906 -8.85155 12663 ft 361 kts 56°
2026-05-04 21:00 38.84211 -8.82367 13398 ft 368 kts 56°
2026-05-04 21:01 38.85540 -8.79532 14097 ft 374 kts 56°
2026-05-04 21:01 38.86891 -8.76656 14758 ft 379 kts 55°
2026-05-04 21:01 38.88261 -8.73741 15422 ft 384 kts 55°
2026-05-04 21:01 38.89629 -8.70827 16061 ft 389 kts 55°
2026-05-04 21:02 38.91030 -8.67840 16739 ft 393 kts 55°
2026-05-04 21:02 38.92450 -8.64811 17384 ft 398 kts 55°
2026-05-04 21:02 38.93885 -8.61743 18042 ft 403 kts 55°
2026-05-04 21:02 38.95335 -8.58634 18632 ft 408 kts 55°
2026-05-04 21:03 38.96804 -8.55493 19162 ft 413 kts 54°
2026-05-04 21:03 38.98290 -8.52312 19672 ft 418 kts 54°
2026-05-04 21:03 38.99791 -8.49091 20173 ft 422 kts 54°
2026-05-04 21:03 39.00790 -8.46940 20497 ft 426 kts 54°
2026-05-04 21:04 39.02313 -8.43650 20966 ft 430 kts 54°
2026-05-04 21:04 39.03857 -8.40319 21452 ft 435 kts 54°
2026-05-04 21:04 39.05410 -8.36969 21925 ft 439 kts 54°
2026-05-04 21:04 39.06983 -8.33577 22398 ft 444 kts 54°
2026-05-04 21:05 39.08573 -8.30152 22857 ft 448 kts 54°
2026-05-04 21:05 39.10178 -8.26692 23320 ft 452 kts 54°
2026-05-04 21:05 39.11798 -8.23196 23762 ft 457 kts 54°
2026-05-04 21:05 39.13430 -8.19666 24042 ft 460 kts 54°
2026-05-04 21:06 39.15070 -8.16106 24115 ft 461 kts 54°
2026-05-04 21:06 39.16700 -8.12555 24128 ft 462 kts 54°
2026-05-04 21:06 39.18341 -8.08980 24459 ft 465 kts 54°
2026-05-04 21:06 39.19997 -8.05380 24852 ft 468 kts 54°
2026-05-04 21:07 39.21664 -8.01760 25232 ft 471 kts 54°
2026-05-04 21:07 39.23342 -7.98110 25599 ft 475 kts 54°
2026-05-04 21:07 39.25027 -7.94431 25965 ft 478 kts 54°
2026-05-04 21:07 39.26723 -7.90724 26330 ft 481 kts 54°
2026-05-04 21:08 39.28407 -7.87039 26672 ft 485 kts 54°
2026-05-04 21:08 39.30125 -7.83277 27025 ft 488 kts 54°
2026-05-04 21:08 39.31852 -7.79487 27357 ft 491 kts 54°
2026-05-04 21:08 39.33591 -7.75670 27702 ft 495 kts 54°
2026-05-04 21:09 39.35340 -7.71824 28039 ft 498 kts 54°
2026-05-04 21:09 39.37095 -7.67957 28381 ft 501 kts 54°
2026-05-04 21:09 39.38848 -7.64040 28716 ft 506 kts 56°
2026-05-04 21:09 39.40530 -7.60011 29045 ft 510 kts 58°
2026-05-04 21:10 39.42130 -7.55902 29353 ft 515 kts 59°
2026-05-04 21:10 39.43688 -7.51714 29656 ft 519 kts 60°
2026-05-04 21:10 39.45234 -7.47483 29950 ft 522 kts 60°
2026-05-04 21:10 39.46799 -7.43232 30234 ft 525 kts 59°
2026-05-04 21:11 39.48394 -7.38974 30489 ft 527 kts 59°
2026-05-04 21:11 39.50016 -7.34712 30744 ft 529 kts 59°
2026-05-04 21:11 39.51658 -7.30443 31014 ft 531 kts 59°
2026-05-04 21:11 39.53317 -7.26152 31292 ft 532 kts 59°
2026-05-04 21:12 39.54972 -7.21859 31619 ft 532 kts 59°
2026-05-04 21:12 39.56594 -7.17620 31984 ft 532 kts 59°
2026-05-04 21:12 39.58229 -7.13320 32330 ft 531 kts 59°
2026-05-04 21:12 39.59854 -7.09035 32718 ft 530 kts 59°
2026-05-04 21:13 39.61478 -7.04735 33101 ft 529 kts 59°
2026-05-04 21:13 39.63092 -7.00448 33482 ft 528 kts 59°
2026-05-04 21:13 39.64701 -6.96176 33835 ft 528 kts 59°
2026-05-04 21:13 39.66317 -6.91900 34168 ft 528 kts 59°
2026-05-04 21:14 39.67934 -6.87631 34498 ft 526 kts 60°
2026-05-04 21:14 39.69546 -6.83371 34839 ft 525 kts 60°
2026-05-04 21:14 39.71146 -6.79121 35182 ft 523 kts 60°
2026-05-04 21:14 39.72736 -6.74874 35506 ft 521 kts 60°
2026-05-04 21:15 39.74319 -6.70643 35823 ft 520 kts 60°
2026-05-04 21:15 39.75896 -6.66423 36019 ft 518 kts 60°
2026-05-04 21:15 39.79026 -6.58033 36059 ft 514 kts 60°
2026-05-04 21:16 39.82137 -6.49680 36054 ft 513 kts 60°
2026-05-04 21:16 39.85247 -6.41316 36051 ft 513 kts 61°
2026-05-04 21:17 39.88254 -6.32888 36053 ft 514 kts 63°
2026-05-04 21:17 39.91034 -6.24382 36050 ft 514 kts 64°
2026-05-04 21:18 39.93798 -6.15805 36049 ft 514 kts 64°
2026-05-04 21:18 39.96622 -6.07247 36046 ft 514 kts 64°
2026-05-04 21:19 39.99459 -5.98697 36032 ft 514 kts 64°
2026-05-04 21:19 40.02283 -5.90143 36037 ft 514 kts 64°
2026-05-04 21:20 40.05101 -5.81566 36033 ft 514 kts 64°
2026-05-04 21:20 40.07898 -5.72995 36037 ft 514 kts 64°
2026-05-04 21:21 40.10693 -5.64407 36039 ft 514 kts 64°
2026-05-04 21:21 40.13487 -5.55812 36049 ft 514 kts 65°
2026-05-04 21:22 40.16279 -5.47205 36050 ft 514 kts 65°
2026-05-04 21:22 40.19067 -5.38595 36054 ft 514 kts 65°
2026-05-04 21:23 40.21825 -5.30026 36061 ft 514 kts 65°
2026-05-04 21:23 40.24584 -5.21396 36052 ft 514 kts 65°
2026-05-04 21:24 40.27337 -5.12763 36054 ft 513 kts 65°
2026-05-04 21:24 40.30099 -5.04136 36043 ft 514 kts 65°
2026-05-04 21:25 40.32855 -4.95496 36037 ft 514 kts 65°
2026-05-04 21:25 40.35596 -4.86844 36034 ft 514 kts 65°
2026-05-04 21:26 40.38326 -4.78182 36031 ft 514 kts 66°
2026-05-04 21:26 40.41045 -4.69519 36034 ft 514 kts 66°
2026-05-04 21:27 40.43767 -4.60853 36030 ft 513 kts 66°
2026-05-04 21:27 40.46483 -4.52186 36030 ft 513 kts 66°
2026-05-04 21:28 40.49187 -4.43517 36026 ft 513 kts 66°
2026-05-04 21:28 40.51883 -4.34846 36030 ft 512 kts 66°
2026-05-04 21:29 40.54575 -4.26178 36026 ft 512 kts 66°
2026-05-04 21:29 40.57253 -4.17511 36026 ft 511 kts 66°
2026-05-04 21:30 40.59921 -4.08835 36024 ft 511 kts 67°
2026-05-04 21:30 40.62578 -4.00169 36021 ft 511 kts 67°
2026-05-04 21:31 40.66545 -3.87213 36010 ft 511 kts 67°
2026-05-04 21:32 40.69189 -3.78524 36008 ft 510 kts 67°
2026-05-04 21:32 40.71822 -3.69841 36005 ft 510 kts 67°
2026-05-04 21:33 40.74451 -3.61153 36001 ft 510 kts 67°
2026-05-04 21:33 40.77072 -3.52460 36002 ft 510 kts 67°
2026-05-04 21:34 40.79684 -3.43759 36000 ft 510 kts 68°
2026-05-04 21:34 40.82290 -3.35054 36000 ft 510 kts 68°
2026-05-04 21:35 40.84887 -3.26345 35998 ft 509 kts 69°
2026-05-04 21:35 40.86813 -3.17410 35996 ft 509 kts 76°
2026-05-04 21:36 40.88604 -3.08356 35996 ft 509 kts 75°
2026-05-04 21:36 40.90408 -2.99249 35996 ft 509 kts 76°
2026-05-04 21:37 40.92170 -2.90253 35999 ft 509 kts 76°
2026-05-04 21:37 40.93929 -2.81197 36003 ft 508 kts 76°
2026-05-04 21:38 40.95680 -2.72153 36007 ft 508 kts 76°
2026-05-04 21:38 40.97424 -2.63096 36007 ft 507 kts 76°
2026-05-04 21:39 40.99160 -2.54052 36014 ft 507 kts 76°
2026-05-04 21:39 41.00887 -2.45001 36011 ft 507 kts 76°
2026-05-04 21:40 41.02595 -2.35959 36007 ft 506 kts 76°
2026-05-04 21:40 41.04306 -2.26915 36010 ft 506 kts 77°
2026-05-04 21:41 41.06016 -2.17873 36011 ft 506 kts 77°
2026-05-04 21:41 41.07717 -2.08836 36008 ft 506 kts 77°
2026-05-04 21:42 41.09408 -1.99798 36010 ft 505 kts 77°
2026-05-04 21:42 41.11095 -1.90753 36006 ft 505 kts 77°
2026-05-04 21:43 41.12766 -1.81698 36005 ft 505 kts 77°
2026-05-04 21:43 41.14415 -1.72703 36008 ft 505 kts 77°
2026-05-04 21:44 41.16071 -1.63652 36003 ft 505 kts 77°
2026-05-04 21:44 41.17719 -1.54601 36007 ft 505 kts 77°
2026-05-04 21:45 41.19355 -1.45536 36013 ft 505 kts 77°
2026-05-04 21:45 41.20983 -1.36476 36013 ft 504 kts 77°
2026-05-04 21:46 41.22616 -1.27425 36015 ft 504 kts 77°
2026-05-04 21:46 41.24243 -1.18369 36013 ft 504 kts 77°
2026-05-04 21:47 41.25856 -1.09312 36017 ft 503 kts 78°
2026-05-04 21:47 41.27453 -1.00258 36008 ft 503 kts 78°
2026-05-04 21:48 41.29052 -0.91211 36016 ft 502 kts 78°
2026-05-04 21:48 41.30641 -0.82174 36015 ft 502 kts 78°
2026-05-04 21:49 41.32204 -0.73198 36006 ft 501 kts 78°
2026-05-04 21:49 41.33770 -0.64168 35996 ft 501 kts 78°
2026-05-04 21:50 41.34948 -0.55072 35987 ft 498 kts 90°
2026-05-04 21:50 41.34417 -0.45976 35969 ft 492 kts 102°
2026-05-04 21:50 41.33910 -0.41478 35144 ft 492 kts 102°
2026-05-04 21:51 41.33398 -0.36960 33907 ft 495 kts 102°
2026-05-04 21:51 41.32885 -0.32426 32443 ft 497 kts 102°
2026-05-04 21:51 41.32369 -0.27872 31526 ft 496 kts 102°
2026-05-04 21:51 41.31860 -0.23371 31068 ft 488 kts 102°
2026-05-04 21:52 41.31362 -0.18963 30401 ft 476 kts 102°
2026-05-04 21:52 41.30877 -0.14666 29748 ft 463 kts 103°
2026-05-04 21:52 41.30401 -0.10484 29142 ft 449 kts 103°
2026-05-04 21:52 41.29939 -0.06443 28578 ft 435 kts 103°
2026-05-04 21:53 41.29488 -0.02532 28009 ft 424 kts 103°
2026-05-04 21:53 41.29036 0.01341 27469 ft 422 kts 103°
2026-05-04 21:53 41.28583 0.05190 26931 ft 421 kts 103°
2026-05-04 21:53 41.28131 0.09023 26409 ft 419 kts 103°
2026-05-04 21:54 41.27682 0.12831 25896 ft 417 kts 102°
2026-05-04 21:54 41.27235 0.16627 25399 ft 414 kts 102°
2026-05-04 21:54 41.26955 0.20436 24908 ft 415 kts 93°
2026-05-04 21:54 41.27095 0.24234 24554 ft 421 kts 87°
2026-05-04 21:55 41.27334 0.28112 24170 ft 420 kts 87°
2026-05-04 21:55 41.27573 0.31983 23795 ft 418 kts 87°
2026-05-04 21:55 41.27806 0.35816 23398 ft 414 kts 87°
2026-05-04 21:55 41.28033 0.39619 23010 ft 411 kts 87°
2026-05-04 21:56 41.28256 0.43397 22636 ft 409 kts 87°
2026-05-04 21:56 41.28348 0.47146 22318 ft 403 kts 97°
2026-05-04 21:56 41.28119 0.49582 22148 ft 401 kts 101°
2026-05-04 21:56 41.27596 0.54491 21787 ft 400 kts 101°
2026-05-04 21:57 41.27337 0.56904 21614 ft 399 kts 101°
2026-05-04 21:57 41.26944 0.60542 21348 ft 396 kts 101°
2026-05-04 21:57 41.26555 0.64145 20873 ft 393 kts 101°
2026-05-04 21:57 41.26165 0.67733 20367 ft 392 kts 100°
2026-05-04 21:58 41.25776 0.71312 19862 ft 391 kts 100°
2026-05-04 21:58 41.25385 0.74885 19354 ft 391 kts 100°
2026-05-04 21:58 41.24993 0.78455 18839 ft 390 kts 100°
2026-05-04 21:58 41.24603 0.81995 18549 ft 383 kts 100°
2026-05-04 21:59 41.24215 0.85484 18124 ft 381 kts 100°
2026-05-04 21:59 41.23827 0.88958 17642 ft 379 kts 100°
2026-05-04 21:59 41.23444 0.92400 17048 ft 373 kts 100°
2026-05-04 21:59 41.23066 0.95795 16355 ft 371 kts 100°
2026-05-04 22:00 41.22689 0.99185 15876 ft 370 kts 100°
2026-05-04 22:00 41.22315 1.02565 15413 ft 369 kts 100°
2026-05-04 22:00 41.21941 1.05935 15020 ft 367 kts 100°
2026-05-04 22:00 41.21571 1.09242 14611 ft 358 kts 100°
2026-05-04 22:01 41.21207 1.12485 14057 ft 349 kts 100°
2026-05-04 22:01 41.20864 1.15548 13803 ft 333 kts 100°
2026-05-04 22:01 41.20524 1.18551 13251 ft 326 kts 100°
2026-05-04 22:01 41.20184 1.21516 12688 ft 323 kts 100°
2026-05-04 22:02 41.19849 1.24432 12262 ft 317 kts 100°
2026-05-04 22:02 41.19518 1.27308 11831 ft 314 kts 100°
2026-05-04 22:02 41.19190 1.30149 11421 ft 307 kts 100°
2026-05-04 22:02 41.18870 1.32935 10994 ft 304 kts 100°
2026-05-04 22:03 41.18554 1.35695 10577 ft 301 kts 99°
2026-05-04 22:03 41.18240 1.38433 10207 ft 298 kts 99°
2026-05-04 22:03 41.17927 1.41147 10133 ft 300 kts 99°
2026-05-04 22:03 41.17610 1.43878 10003 ft 299 kts 99°
2026-05-04 22:04 41.17292 1.46615 9650 ft 303 kts 99°
2026-05-04 22:04 41.16971 1.49368 9352 ft 299 kts 99°
2026-05-04 22:04 41.16657 1.52065 9054 ft 292 kts 99°
2026-05-04 22:04 41.16352 1.54692 8563 ft 285 kts 99°
2026-05-04 22:05 41.16049 1.57280 8002 ft 283 kts 99°
2026-05-04 22:05 41.15745 1.59854 7717 ft 279 kts 99°
2026-05-04 22:05 41.15454 1.62339 7487 ft 266 kts 99°
2026-05-04 22:05 41.15173 1.64738 7040 ft 261 kts 99°
2026-05-04 22:06 41.14901 1.67055 6814 ft 250 kts 99°
2026-05-04 22:06 41.14634 1.69309 6486 ft 245 kts 99°
2026-05-04 22:06 41.14369 1.71534 6077 ft 244 kts 99°
2026-05-04 22:06 41.14106 1.73742 5655 ft 242 kts 99°
2026-05-04 22:07 41.13844 1.75940 5234 ft 241 kts 99°
2026-05-04 22:07 41.13582 1.78133 4982 ft 239 kts 99°
2026-05-04 22:07 41.13324 1.80298 4713 ft 235 kts 99°
2026-05-04 22:07 41.13074 1.82407 4299 ft 234 kts 99°
2026-05-04 22:08 41.12821 1.84538 3952 ft 232 kts 98°
2026-05-04 22:08 41.12574 1.86621 3644 ft 226 kts 99°
2026-05-04 22:08 41.12328 1.88685 3311 ft 226 kts 98°
2026-05-04 22:08 41.12082 1.90734 3097 ft 224 kts 99°
2026-05-04 22:09 41.11839 1.92757 2936 ft 219 kts 99°
2026-05-04 22:09 41.11605 1.94715 2780 ft 211 kts 99°
2026-05-04 22:09 41.11414 1.96628 2414 ft 209 kts 90°
2026-05-04 22:09 41.11639 1.98508 2111 ft 205 kts 69°
2026-05-04 22:10 41.12324 2.00122 2006 ft 200 kts 48°
2026-05-04 22:10 41.13359 2.01326 2001 ft 198 kts 28°
2026-05-04 22:10 41.14601 2.02035 2000 ft 193 kts 15°
2026-05-04 22:10 41.15805 2.02583 2003 ft 171 kts 15°
2026-05-04 22:11 41.16930 2.03093 2010 ft 171 kts 15°
2026-05-04 22:11 41.18050 2.03601 2004 ft 167 kts 14°
2026-05-04 22:11 41.19105 2.04082 1998 ft 157 kts 15°
2026-05-04 22:11 41.20131 2.04547 1850 ft 155 kts 15°
2026-05-04 22:12 41.21141 2.05006 1652 ft 153 kts 15°
2026-05-04 22:12 41.22143 2.05462 1446 ft 151 kts 15°
2026-05-04 22:12 41.23138 2.05914 1237 ft 151 kts 16°
2026-05-04 22:12 41.23460 2.06061 1170 ft 151 kts 16°
2026-05-04 22:13 41.24040 2.06324 1053 ft 150 kts 15°
2026-05-04 22:13 41.25020 2.06770 841 ft 148 kts 16°
2026-05-04 22:13 41.25986 2.07211 636 ft 146 kts 15°
2026-05-04 22:13 41.26933 2.07642 430 ft 144 kts 17°
2026-05-04 22:14 41.27872 2.08070 253 ft 142 kts 17°
2026-05-04 22:14 41.28800 2.08494 68 ft 140 kts 16°
2026-05-04 22:14 41.29681 2.08893 18 ft 110 kts 19°
2026-05-04 22:14 41.30117 2.09097 17 ft 23 kts 20°
2026-05-04 22:15 41.30198 2.09132 17 ft 23 kts 17°
2026-05-04 22:15 41.30377 2.09212 21 ft 29 kts 19°
2026-05-04 22:15 41.30559 2.09277 21 ft 19 kts 352°
2026-05-04 22:15 41.30631 2.09220 19 ft 7 kts 321°
2026-05-04 22:16 41.30642 2.09207 19 ft 0 kts 320°
2026-05-04 22:16 41.30644 2.09205 18 ft 1 kts 320°
2026-05-04 22:16 41.30646 2.09203 20 ft 0 kts 320°
2026-05-04 22:16 41.30655 2.09192 18 ft 5 kts 319°
2026-05-04 22:17 41.30681 2.09129 18 ft 11 kts 274°
2026-05-04 22:17 41.30626 2.09063 21 ft 12 kts 200°
2026-05-04 22:17 41.30552 2.09028 18 ft 11 kts 200°
2026-05-04 22:17 41.30485 2.08996 20 ft 10 kts 200°
2026-05-04 22:18 41.30424 2.08963 18 ft 10 kts 213°
2026-05-04 22:18 41.30381 2.08879 19 ft 11 kts 247°
2026-05-04 22:18 41.30350 2.08782 19 ft 11 kts 246°
2026-05-04 22:18 41.30318 2.08689 17 ft 11 kts 245°
2026-05-04 22:19 41.30325 2.08605 18 ft 11 kts 315°
2026-05-04 22:19 41.30419 2.08547 20 ft 17 kts 335°
2026-05-04 22:19 41.30501 2.08454 22 ft 13 kts 323°
2026-05-04 22:19 41.30542 2.08422 21 ft 3 kts 304°
2026-05-04 22:20 41.30533 2.08379 21 ft 5 kts 248°
2026-05-04 22:20 41.30529 2.08368 23 ft 0 kts 245°
2026-05-04 22:20 41.30527 2.08361 23 ft 1 kts 245°
2026-05-04 22:20 41.30526 2.08360 22 ft 0 kts 245°